DELTA 1 DEB, 7030

Orbit data source: Space-Track

DELTA 1 DEB, 7030 is space debris in SSO originally from a launch on Tue, 06 Nov 1973 UTC launched from the Air Force Western Test Range (AFWTR). Debris objects in space refer to the collection of defunct objects orbiting the Earth. Examples of debris include non-operational satellites, rocket bodies, and fragments generated from explosions, collisions, or faulty payload assembly.

Loading next visibility...
Identifier
7030, 1973-086W
Orbit
SSO
Country
Flag of USUS
Related business
Manufacturer
Unknown
Mission
Spacecraft
Bus & Motor
Unknown
Mass
Unknown
Launch date (UTC)
1973-11-06 (52 years ago)
Launch vehicle
Unknown
Launch site
Air Force Western Test Range (AFWTR)
Object type
Payload
Rocket body
Debris
Shape & HBR
Unknown shape, 0.1 m
Radar Cross Section
Small (<0.1 m²)

Expand to show TLE details & history
Last TLE update: 1 day ago

TLE from 1 day ago
0 DELTA 1 DEB
1  7030U 73086W   26061.96208925 -.00000003  00000-0  35508-3 0  9998
2  7030 101.9293  59.5724 0090030  14.4545  13.5901 12.24093100336658
Epoch: 2026-03-02T23:05Z
TLE epoch observation values (Epoch: 2026-03-02T23:05:24.511Z)
Latitude
27.66582°
Longitude
-93.85541°
Altitude
1,508.259 km
Speed
7.144 km/s
True Right ascension
03h 32m 58s
True Declination
27° 32' 17"
Sunlit
Object was in daylight at epoch
Visualization orbit readout
Latitude
Unknown
Longitude
Unknown
Altitude
Unknown
Speed
Unknown
Apparent Right ascension
Unknown
Apparent Declination
Unknown
Sunlit
N/A
Visualization observer readout
Local Sidereal Time
05:00:42
Azimuth
Unknown
Elevation
Unknown
Doppler factor
Unknown
Orbital elements
Apogee altitude
1,643.933 km
Perigee altitude
1,500.776 km
Semi-major axis
7,950.492 km
Eccentricity
0.009
Inclination
101.9293°
RAAN
59.5724°
Arg. of periapsis
14.4545°
True anomaly
13.83519°
Mean anomaly
13.5901°
Eccentric anomaly
13.71238°
Mean motion
3.06163 °/min
Orbital period
117.58 mins
BSTAR
0.00035508
Loading maneuver chart data...
Computing Atmospheric mass density...
Loading historical data...
Loading historical data...
Loading historical data...
Loading historical data...
Loading historical data...
Loading historical data...
Loading historical data...

Documentation

Showing up to 5 results
|